Weather in Kalynove

Ukraine / Kyiv Region     49°23′01″N   30°26′48″E
temp.,
°C
wind,
m/s
gust,
m/s
humid.,
%
clouds,
%
prec.,
mm/h
press.,
hPa
HPBL,
m
22 october, fri
fri2200:00+12sw5115087 0.0 1008282
03:00+14wsw61153100 0.0 1008632
06:00+14w6125870 0.0 1009688
09:00+13wsw4116888 0.0 1011609
12:00+17w711473 0.0 10121428
15:00+18w79315 0.0 10122002
18:00+14w374698 0.0 1012117
21:00+12sw225273 0.0 101314
23 october, sat
sat2300:00+12wsw3754100 0.0 1014202
03:00+10wsw513675 0.0 1014332
06:00+9w613665 0.0 1014448
09:00+9w611460 0.0 1016759
12:00+11wnw811415 0.0 10171451
15:00+12wnw810325 0.0 10171945
18:00+9wnw48405 0.0 1019214
21:00+6wnw385389 0.0 1021196
24 october, sun
sun2400:00+4w38675 0.0 1022196
03:00+4wsw4116829 0.0 1023301
06:00+3w511805 0.0 1023359
09:00+4wnw5118235 0.0 1025567
12:00+7nw7864100 0.0 10251196
15:00+6nw71062100 0.0 10261379
18:00+5nw71159100 0.0 10271013
21:00+4nnw61061100 0.0 10291243
25 october, mon
mon2500:00+4nnw5105471 0.0 1030548
03:00+2nnw396696 0.0 1031345
06:000nnw37755 0.0 1033175
09:00+1n35714 0.0 1034207
12:00+5nne33505 0.0 1034860
15:00+7nne22380 0.0 1034997
18:00+5e11445 0.0 103410
21:00+3se33515 0.0 103444
26 october, tue
tue2600:00+1sse35595 0.0 103476
03:00+1s35633 0.0 103493
06:000s37654 0.0 1033114
09:00+1s48595 0.0 1033217
12:00+8s68355 0.0 1031656
15:00+10ssw672771 0.0 1029943
18:00+6s4837100 0.0 1028143
21:00+5s51142100 0.0 1028238